TimeCDT,TemperatureF,Dew PointF,Humidity,Sea Level PressureIn,VisibilityMPH,Wind Direction,Wind SpeedMPH,Gust SpeedMPH,PrecipitationIn,Events,Conditions,WindDirDegrees,DateUTC
12:51 AM,82.0,73.0,74,29.95,10.0,SE,5.8,-,N/A,,Partly Cloudy,130,2013-08-20 05:51:00
1:51 AM,80.1,72.0,76,29.94,10.0,SE,5.8,-,N/A,,Partly Cloudy,140,2013-08-20 06:51:00
2:51 AM,78.1,72.0,81,29.93,10.0,SSE,4.6,-,N/A,,Partly Cloudy,160,2013-08-20 07:51:00
3:51 AM,78.1,72.0,81,29.93,10.0,Calm,Calm,-,N/A,,Partly Cloudy,0,2013-08-20 08:51:00
4:51 AM,78.1,73.0,84,29.93,10.0,Calm,Calm,-,N/A,,Partly Cloudy,0,2013-08-20 09:51:00
5:51 AM,78.1,72.0,81,29.93,10.0,Calm,Calm,-,N/A,,Partly Cloudy,0,2013-08-20 10:51:00
6:51 AM,75.9,71.1,85,29.94,10.0,Calm,Calm,-,N/A,,Partly Cloudy,0,2013-08-20 11:51:00
7:51 AM,78.1,72.0,81,29.95,10.0,Calm,Calm,-,N/A,,Partly Cloudy,0,2013-08-20 12:51:00
8:16 AM,78.8,73.4,83,29.96,10.0,Calm,Calm,-,N/A,Thunderstorm,Thunderstorm,0,2013-08-20 13:16:00
8:51 AM,81.0,73.9,79,29.97,10.0,Calm,Calm,-,N/A,Thunderstorm,Thunderstorm,0,2013-08-20 13:51:00
9:31 AM,82.4,73.4,74,29.98,10.0,Calm,Calm,-,N/A,,Scattered Clouds,0,2013-08-20 14:31:00
9:47 AM,82.4,73.4,74,29.99,9.0,NNE,4.6,-,0.00,Rain-Thunderstorm,Light Thunderstorms and Rain,30,2013-08-20 14:47:00
9:51 AM,82.0,75.0,79,29.99,9.0,NNE,3.5,-,0.00,Rain-Thunderstorm,Light Thunderstorms and Rain,30,2013-08-20 14:51:00
10:32 AM,80.6,75.2,84,30.00,6.0,ESE,6.9,-,0.02,Rain,Rain,110,2013-08-20 15:32:00
10:51 AM,79.0,75.0,88,29.99,7.0,ESE,5.8,-,0.05,Rain,Light Rain,110,2013-08-20 15:51:00
11:51 AM,78.1,73.9,87,30.02,5.0,ESE,8.1,-,0.10,Rain,Rain,110,2013-08-20 16:51:00
12:36 PM,78.8,73.4,83,30.01,10.0,SE,11.5,-,0.04,Rain-Thunderstorm,Light Thunderstorms and Rain,130,2013-08-20 17:36:00
12:51 PM,78.1,73.9,87,30.01,10.0,ESE,12.7,-,0.04,Rain-Thunderstorm,Light Thunderstorms and Rain,120,2013-08-20 17:51:00
1:07 PM,78.8,73.4,83,30.00,8.0,East,9.2,-,0.02,Rain,Rain,100,2013-08-20 18:07:00
1:51 PM,78.1,73.9,87,30.01,10.0,East,8.1,-,0.06,Rain,Light Rain,90,2013-08-20 18:51:00
2:51 PM,81.0,73.9,79,29.99,10.0,East,11.5,-,0.01,Rain,Light Rain,100,2013-08-20 19:51:00
3:51 PM,82.9,73.9,74,29.97,10.0,ESE,10.4,-,0.00,,Scattered Clouds,110,2013-08-20 20:51:00
4:51 PM,84.0,73.9,72,29.95,10.0,ESE,11.5,-,N/A,,Partly Cloudy,120,2013-08-20 21:51:00
5:51 PM,82.9,73.0,72,29.94,10.0,East,11.5,-,N/A,,Partly Cloudy,100,2013-08-20 22:51:00
6:51 PM,82.9,73.0,72,29.94,10.0,East,10.4,-,N/A,,Partly Cloudy,100,2013-08-20 23:51:00
7:51 PM,82.0,73.9,76,29.96,10.0,East,9.2,-,N/A,,Partly Cloudy,90,2013-08-21 00:51:00
8:51 PM,81.0,73.9,79,29.96,10.0,East,9.2,-,N/A,,Partly Cloudy,90,2013-08-21 01:51:00
9:51 PM,81.0,73.9,79,29.97,10.0,ESE,8.1,-,N/A,,Partly Cloudy,110,2013-08-21 02:51:00
10:51 PM,82.0,73.9,76,29.99,10.0,ESE,10.4,-,N/A,,Partly Cloudy,110,2013-08-21 03:51:00
11:51 PM,81.0,75.0,82,29.99,10.0,ESE,8.1,-,N/A,,Partly Cloudy,120,2013-08-21 04:51:00